This demonstration page uses our WeatherBlox Daily Observations layout. Learn more.

Left ArrowRight Arrow

39.08367, -84.50855

Hourly Observations for April 15, 2015

Temp ( °F °C ) Dew Point ( °F °C ) Humidity (%) Winds ( mph kmh ) Pressure ( in mb ) Visibility ( mi km ) Precip ( " mm )
12:53 am 00:53 Clear 48 8.9 44 6.7 86 86 NE 3 6 30.19 1022 10 16.0934 0 0
1:53 am 01:53 Clear 51 10.6 40 4.4 66 66 NE 3 6 30.19 1022 10 16.0934 0 0
2:53 am 02:53 Clear 50 10 40 4.4 68 68 NNE 5 7 30.18 1022 10 16.0934 0 0
3:53 am 03:53 Clear 49 9.4 40 4.4 71 71 NE 5 7 30.17 1022 10 16.0934 0 0
4:53 am 04:53 Clear 50 10 39 3.9 66 66 VRB 5 7 30.17 1022 10 16.0934 0 0
5:53 am 05:53 Clear 50 10 37 2.8 61 61 NNE 6 9 30.16 1021 10 16.0934 0 0
6:53 am 06:53 Clear 51 10.6 35 1.7 54 54 NE 5 7 30.16 1021 10 16.0934 0 0
7:53 am 07:53 Sunny 52 11.1 36 2.2 55 55 NE 6 9 30.18 1022 10 16.0934 0 0
8:53 am 08:53 Sunny 54 12.2 37 2.8 53 53 NNE 7 11 30.19 1022 10 16.0934 0 0
9:53 am 09:53 Sunny 55 12.8 36 2.2 49 49 NNE 7 11 30.2 1023 10 16.0934 0 0
10:53 am 10:53 Sunny 57 13.9 35 1.7 44 44 NE 13 20 30.19 1023 10 16.0934 0 0
11:53 am 11:53 Partly Cloudy 59 15 36 2.2 42 42 NE 15 24 30.2 1023 10 16.0934 0 0
12:53 pm 12:53 Mostly Cloudy 61 16.1 38 3.3 43 43 NE 15 24 30.2 1023 10 16.0934 0 0
1:53 pm 13:53 Partly Cloudy 63 17.2 38 3.3 40 40 NE 14 22 30.19 1022 10 16.0934 0 0
2:53 pm 14:53 Mostly Cloudy with Light Rain 63 17.2 41 5 45 45 ENE 12 19 30.17 1022 10 16.0934 0 0.0254
3:53 pm 15:53 Cloudy 63 17.2 39 3.9 41 41 E 12 19 30.16 1022 10 16.0934 0 0.0254
4:53 pm 16:53 Cloudy 60 15.6 45 7.2 58 58 ENE 7 11 30.16 1022 10 16.0934 0 0.0254
5:53 pm 17:53 Cloudy with Light Rain 59 15 48 8.9 67 67 ESE 12 19 30.18 1022 10 16.0934 0.01 0.254
6:53 pm 18:53 Cloudy 59 15 47 8.3 64 64 E 7 11 30.17 1022 10 16.0934 0 0.0254
7:53 pm 19:53 Cloudy 58 14.4 47 8.3 67 67 VRB 5 7 30.16 1022 10 16.0934 0 0
8:53 pm 20:53 Mostly Cloudy 59 15 46 7.8 62 62 E 5 7 30.18 1022 10 16.0934 0 0
9:30 pm 21:30 Mostly Cloudy 57 14 48 9 72 72 NNE 5 7 30.18 1022 10 16.0934 0 0
9:53 pm 21:53 Cloudy 57 13.9 49 9.4 74 74 NNE 6 9 30.18 1022 10 16.0934 0 0.0254
10:05 pm 22:05 Mostly Cloudy 57 13.9 49 9.4 74 74 NNE 5 7 30.18 1022 10 16.0934 0 0
10:53 pm 22:53 Cloudy 57 13.9 48 8.9 72 72 ENE 6 9 30.19 1022 10 16.0934 0 0
11:53 pm 23:53 Mostly Clear 59 15 44 6.7 58 58 E 6 9 30.18 1022 10 16.0934 0 0

Powered by AerisWeather